Вернуться в каталог

BREEZE-M DEB

АктивенHEO
NORAD 38610·DEBRIS·🇷🇺 Russia

Запущен Mar 14, 2008 с Baikonur Cosmodrome

Loading…

Ближайшие Пролёты (ближайшие 24 часа)

TLE

СвежийSource: Space-Track

Эпоха: Sep 14, 2026, 05:33 UTC

1 38610U 08011BH  26257.23136168 -.00000104  00000-0  00000-0 0  9996
2 38610  49.3097  25.1894 6361634 207.5960  95.2839  3.05984843174630

Отслеживайте BREEZE-M DEB в реальном времени с AllMySat

Download on the App Store